Terminal Aerodrome Forecast
Issued by NWS

Home | Current Version | Previous Version | Text Only | Print | Product List | Glossary On
Versions: 1 2 3 4 5 6 7 8 9 10 11 12 13 14 15
000
FTUS45 KVEF 021700
TAFHND
TAF
KHND 021726Z 0218/0318 20011KT P6SM VCSH SCT030 BKN050
     FM021900 22018G26KT P6SM SCT040 BKN070
     FM030300 19011KT P6SM FEW050 BKN070
     FM030700 20007KT P6SM FEW050 BKN070=

USA.gov is the U.S. government's official web portal to all federal, state and local government web resources and services.